SCP
0 0 0 0 0 0 0 0 0 0 0 0 0 0 0 0 0 0 0 0 0 0 0 0 0 0 0 0 0 0 -0 0 -0 -0 -0 -0 -0 -0 -0 -0 -0 -0 -0
0 0 0 0 0 0 0 0 0 0 0 0 0 0 0 0 0 0 0 0 0 0 0 0 0 1 0 0 -0 0 -0 0 -0 -0 -0 -0 -0 -0 -0 -0 -0 -0 -0
0 0 0 0 0 0 0 0 0 0 0 0 0 -0 0 0 0 0 0 0 0 0 0 0 0 0 0 -0 -0 -0 -0 -0 -0 -0 -0 -0 -0 -0 -0 -0 -0 -0 -0
0 0 0 0 0 0 0 0 0 0 0 0 0 0 0 0 0 0 0 0 0 0 0 0 0 0 0 0 -0 -0 -0 -0 -0 -0 -0 -0 -0 -0 -0 -0 -0 -0 -0
0 0 0 0 0 0 0 0 0 0 0 0 0 0 0 0 0 0 0 0 0 0 0 0 0 0 0 0 -0 -0 -0 -0 -0 -0 -0 -0 -0 -0 -0 -0 -0 -0 -0
0 0 0 0 0 0 -0 0 0 0 0 0 0 0 0 0 0 0 0 0 0 0 0 0 0 0 0 0 -0 -0 -0 -0 -0 -0 -0 -0 -0 -0 -0 -0 -0 -0 -0
0 0 0 0 0 0 0 0 0 0 0 0 0 0 0 0 0 0 0 0 0 0 0 0 0 0 0 0 -0 -0 -0 -0 -0 -0 -0 -0 -0 -0 -0 -0 -0 -0 -0
0 0 0 0 0 0 -0 0 0 0 0 -0 0 0 0 0 0 0 0 0 0 0 0 0 0 0 0 0 0 -0 -0 -0 -0 -0 -0 -0 -0 -0 -0 -0 -0 -0 -0
0 0 0 0 0 0 -0 0 0 0 0 0 -0 0 0 0 0 0 0 0 0 0 0 0 0 0 0 0 0 -0 -0 -0 -0 -0 -0 -0 -0 -0 -0 -0 -0 -0 -0
0 0 0 0 0 0 -0 -0 0 0 0 0 0 0 0 0 0 0 0 0 0 0 0 0 0 0 0 0 0 0 -0 -0 -0 -0 -0 -0 -0 -0 -0 -0 -0 -0 -0
0 0 0 0 0 0 0 -0 -0 -0 0 0 0 0 0 0 -0 0 0 0 0 0 0 0 0 0 0 0 0 0 0 0 -0 0 -0 -0 -0 -0 -0 -0 -0 -0 -0
0 0 0 0 0 0 0 0 -0 -0 0 0 0 0 0 0 0 0 0 0 0 0 0 0 0 0 0 0 0 -0 -0 -0 -0 -0 -0 0 -0 -0 -0 -0 -0 -0 -0
0 0 0 0 0 0 0 0 -0 0 0 0 0 0 0 0 0 0 0 0 0 0 0 -0 0 0 0 0 0 0 -0 -0 -0 -0 -0 -0 -0 -0 -0 -0 -0 -0 -0
0 0 0 0 0 0 0 0 0 0 0 0 0 0 0 0 0 0 0 -0 -0 -0 0 0 0 0 0 0 0 0 0 -0 -0 -0 -0 -0 -0 -0 -0 -0 -0 -0 -0
0 0 0 0 0 0 0 0 0 0 0 0 0 0 0 0 0 -0 -0 -0 -0 -0 0 0 0 0 0 0 0 0 0 0 0 0 0 0 0 0 0 0 0 -0 -0
0 0 0 0 0 0 0 0 0 0 0 0 0 0 0 0 -0 -0 -0 0 0 0 0 0 0 0 0 0 0 0 0 0 0 0 0 0 0 0 0 0 0 -0 -0
0 0 0 0 0 0 0 0 0 0 0 0 0 0 0 0 0 0 0 0 0 0 0 0 0 0 0 0 0 0 0 0 0 0 0 0 0 0 0 0 0 0 0
0 0 0 0 0 0 0 0 0 0 0 0 0 0 0 0 0 0 0 0 0 0 0 0 0 0 0 0 0 0 0 0 0 0 0 0 0 0 0 0 0 0 0
0 0 0 0 0 0 0 0 0 0 -0 0 0 0 0 0 0 0 0 0 0 0 0 0 0 0 0 0 0 0 0 0 0 0 0 0 0 0 0 0 0 0 0
0 0 0 0 0 0 0 0 0 0 0 0 0 0 0 0 0 0 0 0 0 0 0 0 0 0 0 0 0 0 0 0 0 0 0 0 0 0 0 0 0 0 0
0 0 0 0 0 0 0 0 0 0 0 0 0 0 0 0 0 0 0 0 0 0 0 0 0 0 0 0 0 0 0 0 0 0 0 0 0 0 0 0 0 0 0
0 0 0 0 0 0 0 0 0 0 0 0 0 0 0 0 0 0 0 0 0 0 0 0 0 0 0 0 0 0 0 0 0 0 0 0 0 0 0 0 0 0 0
0 0 0 0 0 0 0 0 0 0 0 0 0 0 0 0 0 0 0 0 0 0 0 0 0 0 0 0 0 0 0 0 0 0 0 0 0 0 0 0 0 0 0
0 0 0 0 0 0 0 0 0 0 0 0 0 0 0 0 0 0 0 0 0 0 0 0 0 0 0 0 0 0 0 0 0 0 0 0 0 0 0 0 0 0 0
0 0 0 0 0 0 0 0 0 0 0 0 0 0 0 0 0 0 0 0 0 0 0 0 0 0 0 0 0 0 0 0 0 0 0 0 0 0 0 0 0 0 0
0 0 0 0 0 0 0 0 0 0 0 0 0 0 0 0 0 0 0 0 0 0 0 0 0 0 0 0 0 0 0 0 0 0 0 0 0 0 0 0 0 0 0
Wind_Speed_500mb
11 15 19 18 18 21 24 31 32 32 35 33 31 27 26 17 8 11 3 9 7 14 12 29 51 37 24 22 59 48 38 48 50 48 52 48 43 32 27 30 38 30 32
10 15 17 17 19 20 23 29 29 32 40 43 46 40 31 26 19 15 9 8 9 9 15 31 49 34 26 68 39 45 48 50 52 54 50 42 34 31 41 40 33 31 36
8 14 14 14 16 19 20 25 28 33 34 52 52 42 40 36 21 19 16 17 17 19 27 44 32 34 59 36 47 54 59 64 59 53 46 41 44 47 41 32 31 35 40
6 14 12 13 18 17 20 21 28 31 41 53 50 47 41 32 27 29 32 32 33 32 33 42 37 36 52 40 54 67 69 60 54 52 50 53 51 43 32 29 26 36 40
5 12 12 14 16 14 19 19 26 25 34 47 47 35 37 35 32 38 46 40 43 41 42 41 31 27 56 59 66 67 61 62 56 54 55 49 40 30 23 27 27 41 33
2 10 11 11 12 19 17 19 26 21 24 39 41 38 35 33 32 40 36 35 41 38 39 40 34 26 40 57 68 62 64 60 57 51 45 41 36 32 32 24 41 40 28
3 6 9 9 10 17 19 23 24 23 18 29 35 37 34 38 35 36 36 32 42 45 42 42 49 55 57 54 73 68 61 56 50 45 41 36 28 30 26 28 42 33 24
7 4 7 7 7 14 20 23 24 25 23 25 36 32 33 43 45 33 35 37 41 45 58 63 76 76 97 84 68 60 54 50 50 47 39 29 30 23 32 45 38 22 31
11 5 5 7 6 11 17 23 21 23 25 20 25 23 15 16 40 44 50 62 44 37 51 74 77 67 57 56 60 58 54 49 43 36 29 31 29 38 40 41 27 40 22
14 8 7 8 7 10 15 22 20 21 22 23 26 26 33 36 25 33 69 72 75 82 69 63 61 69 72 65 56 52 44 41 39 40 36 32 34 40 34 25 34 33 27
18 11 7 6 9 11 15 18 20 19 20 22 22 35 41 52 50 51 47 63 68 66 68 81 80 76 66 59 55 48 49 50 47 39 30 29 43 35 20 39 42 31 15
23 15 9 7 12 12 14 16 22 21 19 19 18 18 33 36 39 54 62 70 71 78 79 75 66 61 57 53 50 47 43 36 28 22 35 37 42 25 22 41 37 26 10
27 20 13 10 14 13 13 17 19 21 19 16 25 17 15 20 43 53 75 66 70 71 68 62 59 55 56 53 46 35 26 33 33 36 37 32 23 18 40 40 30 16 11
28 23 17 13 14 15 14 18 22 20 17 18 18 14 23 31 54 69 75 78 76 62 51 56 46 46 43 36 32 30 34 32 34 30 24 18 18 36 43 31 19 17 14
30 26 20 16 14 16 15 17 24 26 20 17 21 24 27 32 48 60 69 72 71 72 65 56 51 38 33 32 33 31 32 28 21 17 13 15 22 36 32 23 18 17 20
32 29 23 18 17 15 14 17 24 27 26 24 28 30 33 36 49 57 56 46 53 78 73 61 57 50 41 39 34 29 27 24 20 14 13 20 29 30 26 23 21 21 33
33 32 27 21 16 16 15 14 22 28 29 31 35 33 38 45 50 53 48 41 45 66 72 61 55 46 39 35 32 24 22 17 17 13 10 9 16 27 24 23 24 35 23
33 33 30 24 19 18 16 15 23 30 34 36 39 41 50 52 50 48 39 26 33 53 58 67 58 51 42 35 26 19 16 15 13 13 11 10 6 7 15 21 23 20 19
35 35 33 29 22 18 18 19 21 29 35 36 39 39 40 44 47 46 35 25 30 52 51 47 61 52 44 38 33 30 23 18 11 7 6 5 6 8 9 15 18 15 17
36 36 35 31 27 20 23 24 22 27 32 33 35 40 44 42 42 42 36 25 25 37 58 58 55 57 52 47 41 35 31 24 21 14 11 4 8 11 14 16 19 15 16
37 35 36 35 32 26 25 29 26 27 29 33 34 35 39 46 45 41 37 38 34 35 57 60 58 57 56 54 51 42 32 29 26 20 17 9 11 13 15 17 17 17 19
41 39 38 35 32 29 25 30 30 26 28 30 29 36 36 37 36 38 34 30 26 25 42 60 66 62 56 57 53 49 45 39 31 29 22 20 20 21 17 15 14 18 22
42 40 39 36 33 32 29 31 35 32 26 26 28 27 32 37 37 35 33 28 25 25 26 38 47 59 64 56 49 51 47 45 40 33 28 30 29 28 22 18 16 19 22
46 43 40 37 35 34 34 30 35 37 33 29 27 28 28 30 32 33 33 34 32 31 33 31 39 55 65 64 59 49 47 48 39 39 38 32 28 30 27 27 22 21 24
49 45 41 40 38 38 38 36 32 40 39 38 36 35 34 34 33 33 34 34 32 35 37 38 39 44 47 52 60 56 54 46 50 41 39 39 38 34 30 30 30 27 27
48 45 44 41 39 39 38 38 39 35 40 40 36 35 34 36 37 38 37 36 35 33 32 31 39 43 41 40 40 45 51 52 46 49 43 45 41 42 33 33 32 26 24
Wind_Direction_500mb
2 18 18 36 46 49 43 39 33 20 19 28 32 19 13 3 13 348 325 179 212 206 208 193 192 181 196 186 164 133 155 153 152 149 152 152 151 153 152 146 147 145 124
7 25 24 45 58 59 50 41 33 27 25 30 34 22 22 11 20 25 85 162 179 178 171 168 172 175 166 132 117 172 173 172 154 152 153 149 143 145 145 144 146 127 121
13 29 33 45 62 65 68 58 45 25 28 47 41 26 34 35 38 54 49 94 119 133 143 154 155 165 155 139 136 168 162 152 151 150 149 147 143 147 149 155 143 134 121
21 35 39 37 58 58 76 63 52 46 49 49 48 35 30 55 56 72 78 89 101 115 137 157 139 150 173 166 154 157 153 149 150 151 146 143 143 146 151 149 142 135 122
34 42 49 43 62 56 69 71 59 49 63 60 51 34 50 52 68 86 92 93 94 106 125 140 140 150 155 152 153 150 147 146 146 146 147 148 152 152 155 153 145 130 130
65 49 52 50 64 63 80 78 69 56 62 71 56 52 62 71 70 80 80 90 100 103 124 145 156 148 152 137 146 147 145 142 145 148 149 147 145 142 151 161 130 120 134
152 69 57 60 54 75 93 89 75 71 74 87 75 71 76 81 93 86 93 86 103 97 102 120 140 128 134 151 144 142 141 142 144 146 144 146 154 155 158 144 125 137 137
175 111 66 84 72 84 96 100 82 76 71 99 96 91 71 69 76 94 99 106 104 114 88 110 118 124 136 131 137 135 137 138 142 143 143 146 144 149 136 120 132 132 132
182 149 79 123 102 87 101 110 92 90 80 85 98 108 94 86 78 89 112 111 116 121 120 119 116 118 123 126 127 132 134 139 138 140 134 138 144 128 123 132 135 139 137
185 161 111 131 135 110 110 119 108 99 93 88 97 111 117 113 101 83 103 111 117 116 123 133 122 123 128 130 132 130 133 135 135 129 128 134 127 132 136 154 138 137 130
186 174 141 139 152 131 126 128 129 119 110 104 101 126 119 120 112 111 90 92 112 113 113 128 131 128 129 132 131 132 132 130 130 135 135 137 136 139 123 132 136 138 138
186 179 159 149 159 149 143 143 148 139 120 118 112 133 144 134 135 131 116 106 104 108 119 123 123 124 126 125 128 129 128 131 134 148 138 136 137 130 140 140 142 143 175
185 179 168 161 173 168 154 150 153 144 134 117 123 123 138 136 140 143 135 119 108 110 112 115 119 122 122 123 123 123 122 119 119 129 136 135 143 161 151 150 160 190 189
186 182 174 169 179 180 169 158 159 154 143 140 144 107 136 155 145 143 142 135 122 112 111 112 116 118 116 117 121 125 125 132 140 145 155 171 168 163 156 176 193 234 241
187 185 180 174 181 182 175 167 171 169 159 150 146 128 144 167 167 162 151 146 147 133 130 136 128 128 137 134 135 138 135 135 137 147 165 178 181 178 180 183 199 239 255
188 188 183 177 179 181 181 175 179 176 164 156 151 146 150 161 171 165 161 158 154 149 144 148 148 153 154 153 150 153 144 134 135 132 146 167 176 190 204 223 234 247 261
188 190 188 186 183 182 193 187 183 180 170 163 156 158 161 164 169 177 176 177 173 166 156 155 157 160 161 165 161 159 156 145 140 125 100 133 180 203 220 233 245 251 230
188 192 192 193 190 190 189 189 184 181 177 168 165 168 178 176 186 182 188 203 193 181 170 165 168 168 172 171 170 171 173 173 160 121 80 69 105 198 223 233 236 225 204
191 192 195 196 198 196 181 173 172 182 180 177 176 175 182 187 193 198 199 201 200 195 199 197 176 179 181 182 189 191 190 185 167 145 101 33 11 342 274 243 232 243 240
193 193 193 198 200 201 186 177 173 177 181 185 186 185 188 200 205 206 207 195 199 208 202 194 193 188 193 197 202 206 198 196 205 197 166 216 298 314 325 288 272 264 259
193 194 196 198 199 201 194 183 179 185 189 187 194 193 194 202 208 216 222 229 234 222 212 208 208 207 204 206 212 208 210 218 218 227 233 218 273 283 310 316 287 270 262
195 195 197 200 200 200 196 188 187 187 193 196 193 199 199 202 203 212 222 227 238 250 231 220 217 218 224 223 220 216 217 218 226 237 243 251 270 268 275 309 314 277 269
197 198 200 201 200 202 201 202 197 195 196 198 199 199 204 205 206 211 204 213 226 229 231 254 242 239 240 238 236 229 226 234 237 243 242 249 250 263 271 278 307 300 274
199 200 202 202 203 204 206 209 204 200 202 202 200 200 200 204 206 214 222 226 225 228 222 228 243 254 251 249 240 237 241 238 239 246 245 249 254 263 273 275 287 297 287
200 201 202 205 206 207 209 211 213 206 208 210 211 209 209 216 222 228 233 237 238 242 239 240 239 245 251 258 252 242 242 243 242 252 254 255 257 261 267 276 274 288 296
204 202 204 205 210 213 212 213 217 215 213 220 221 221 227 225 225 232 236 243 248 251 249 245 255 249 239 250 250 246 245 244 253 252 265 257 262 259 267 268 267 269 301
Wind_Speed_850mb
11 15 19 18 18 21 24 31 32 32 35 33 31 27 26 17 8 11 3 9 7 14 12 29 51 37 24 22 59 48 38 48 50 48 52 48 43 32 27 30 38 30 32
10 15 17 17 19 20 23 29 29 32 40 43 46 40 31 26 19 15 9 8 9 9 15 31 49 34 26 68 39 45 48 50 52 54 50 42 34 31 41 40 33 31 36
8 14 14 14 16 19 20 25 28 33 34 52 52 42 40 36 21 19 16 17 17 19 27 44 32 34 59 36 47 54 59 64 59 53 46 41 44 47 41 32 31 35 40
6 14 12 13 18 17 20 21 28 31 41 53 50 47 41 32 27 29 32 32 33 32 33 42 37 36 52 40 54 67 69 60 54 52 50 53 51 43 32 29 26 36 40
5 12 12 14 16 14 19 19 26 25 34 47 47 35 37 35 32 38 46 40 43 41 42 41 31 27 56 59 66 67 61 62 56 54 55 49 40 30 23 27 27 41 33
2 10 11 11 12 19 17 19 26 21 24 39 41 38 35 33 32 40 36 35 41 38 39 40 34 26 40 57 68 62 64 60 57 51 45 41 36 32 32 24 41 40 28
3 6 9 9 10 17 19 23 24 23 18 29 35 37 34 38 35 36 36 32 42 45 42 42 49 55 57 54 73 68 61 56 50 45 41 36 28 30 26 28 42 33 24
7 4 7 7 7 14 20 23 24 25 23 25 36 32 33 43 45 33 35 37 41 45 58 63 76 76 97 84 68 60 54 50 50 47 39 29 30 23 32 45 38 22 31
11 5 5 7 6 11 17 23 21 23 25 20 25 23 15 16 40 44 50 62 44 37 51 74 77 67 57 56 60 58 54 49 43 36 29 31 29 38 40 41 27 40 22
14 8 7 8 7 10 15 22 20 21 22 23 26 26 33 36 25 33 69 72 75 82 69 63 61 69 72 65 56 52 44 41 39 40 36 32 34 40 34 25 34 33 27
18 11 7 6 9 11 15 18 20 19 20 22 22 35 41 52 50 51 47 63 68 66 68 81 80 76 66 59 55 48 49 50 47 39 30 29 43 35 20 39 42 31 15
23 15 9 7 12 12 14 16 22 21 19 19 18 18 33 36 39 54 62 70 71 78 79 75 66 61 57 53 50 47 43 36 28 22 35 37 42 25 22 41 37 26 10
27 20 13 10 14 13 13 17 19 21 19 16 25 17 15 20 43 53 75 66 70 71 68 62 59 55 56 53 46 35 26 33 33 36 37 32 23 18 40 40 30 16 11
28 23 17 13 14 15 14 18 22 20 17 18 18 14 23 31 54 69 75 78 76 62 51 56 46 46 43 36 32 30 34 32 34 30 24 18 18 36 43 31 19 17 14
30 26 20 16 14 16 15 17 24 26 20 17 21 24 27 32 48 60 69 72 71 72 65 56 51 38 33 32 33 31 32 28 21 17 13 15 22 36 32 23 18 17 20
32 29 23 18 17 15 14 17 24 27 26 24 28 30 33 36 49 57 56 46 53 78 73 61 57 50 41 39 34 29 27 24 20 14 13 20 29 30 26 23 21 21 33
33 32 27 21 16 16 15 14 22 28 29 31 35 33 38 45 50 53 48 41 45 66 72 61 55 46 39 35 32 24 22 17 17 13 10 9 16 27 24 23 24 35 23
33 33 30 24 19 18 16 15 23 30 34 36 39 41 50 52 50 48 39 26 33 53 58 67 58 51 42 35 26 19 16 15 13 13 11 10 6 7 15 21 23 20 19
35 35 33 29 22 18 18 19 21 29 35 36 39 39 40 44 47 46 35 25 30 52 51 47 61 52 44 38 33 30 23 18 11 7 6 5 6 8 9 15 18 15 17
36 36 35 31 27 20 23 24 22 27 32 33 35 40 44 42 42 42 36 25 25 37 58 58 55 57 52 47 41 35 31 24 21 14 11 4 8 11 14 16 19 15 16
37 35 36 35 32 26 25 29 26 27 29 33 34 35 39 46 45 41 37 38 34 35 57 60 58 57 56 54 51 42 32 29 26 20 17 9 11 13 15 17 17 17 19
41 39 38 35 32 29 25 30 30 26 28 30 29 36 36 37 36 38 34 30 26 25 42 60 66 62 56 57 53 49 45 39 31 29 22 20 20 21 17 15 14 18 22
42 40 39 36 33 32 29 31 35 32 26 26 28 27 32 37 37 35 33 28 25 25 26 38 47 59 64 56 49 51 47 45 40 33 28 30 29 28 22 18 16 19 22
46 43 40 37 35 34 34 30 35 37 33 29 27 28 28 30 32 33 33 34 32 31 33 31 39 55 65 64 59 49 47 48 39 39 38 32 28 30 27 27 22 21 24
49 45 41 40 38 38 38 36 32 40 39 38 36 35 34 34 33 33 34 34 32 35 37 38 39 44 47 52 60 56 54 46 50 41 39 39 38 34 30 30 30 27 27
48 45 44 41 39 39 38 38 39 35 40 40 36 35 34 36 37 38 37 36 35 33 32 31 39 43 41 40 40 45 51 52 46 49 43 45 41 42 33 33 32 26 24
Wind_Direction_850mb
2 18 18 36 46 49 43 39 33 20 19 28 32 19 13 3 13 348 325 179 212 206 208 193 192 181 196 186 164 133 155 153 152 149 152 152 151 153 152 146 147 145 124
7 25 24 45 58 59 50 41 33 27 25 30 34 22 22 11 20 25 85 162 179 178 171 168 172 175 166 132 117 172 173 172 154 152 153 149 143 145 145 144 146 127 121
13 29 33 45 62 65 68 58 45 25 28 47 41 26 34 35 38 54 49 94 119 133 143 154 155 165 155 139 136 168 162 152 151 150 149 147 143 147 149 155 143 134 121
21 35 39 37 58 58 76 63 52 46 49 49 48 35 30 55 56 72 78 89 101 115 137 157 139 150 173 166 154 157 153 149 150 151 146 143 143 146 151 149 142 135 122
34 42 49 43 62 56 69 71 59 49 63 60 51 34 50 52 68 86 92 93 94 106 125 140 140 150 155 152 153 150 147 146 146 146 147 148 152 152 155 153 145 130 130
65 49 52 50 64 63 80 78 69 56 62 71 56 52 62 71 70 80 80 90 100 103 124 145 156 148 152 137 146 147 145 142 145 148 149 147 145 142 151 161 130 120 134
152 69 57 60 54 75 93 89 75 71 74 87 75 71 76 81 93 86 93 86 103 97 102 120 140 128 134 151 144 142 141 142 144 146 144 146 154 155 158 144 125 137 137
175 111 66 84 72 84 96 100 82 76 71 99 96 91 71 69 76 94 99 106 104 114 88 110 118 124 136 131 137 135 137 138 142 143 143 146 144 149 136 120 132 132 132
182 149 79 123 102 87 101 110 92 90 80 85 98 108 94 86 78 89 112 111 116 121 120 119 116 118 123 126 127 132 134 139 138 140 134 138 144 128 123 132 135 139 137
185 161 111 131 135 110 110 119 108 99 93 88 97 111 117 113 101 83 103 111 117 116 123 133 122 123 128 130 132 130 133 135 135 129 128 134 127 132 136 154 138 137 130
186 174 141 139 152 131 126 128 129 119 110 104 101 126 119 120 112 111 90 92 112 113 113 128 131 128 129 132 131 132 132 130 130 135 135 137 136 139 123 132 136 138 138
186 179 159 149 159 149 143 143 148 139 120 118 112 133 144 134 135 131 116 106 104 108 119 123 123 124 126 125 128 129 128 131 134 148 138 136 137 130 140 140 142 143 175
185 179 168 161 173 168 154 150 153 144 134 117 123 123 138 136 140 143 135 119 108 110 112 115 119 122 122 123 123 123 122 119 119 129 136 135 143 161 151 150 160 190 189
186 182 174 169 179 180 169 158 159 154 143 140 144 107 136 155 145 143 142 135 122 112 111 112 116 118 116 117 121 125 125 132 140 145 155 171 168 163 156 176 193 234 241
187 185 180 174 181 182 175 167 171 169 159 150 146 128 144 167 167 162 151 146 147 133 130 136 128 128 137 134 135 138 135 135 137 147 165 178 181 178 180 183 199 239 255
188 188 183 177 179 181 181 175 179 176 164 156 151 146 150 161 171 165 161 158 154 149 144 148 148 153 154 153 150 153 144 134 135 132 146 167 176 190 204 223 234 247 261
188 190 188 186 183 182 193 187 183 180 170 163 156 158 161 164 169 177 176 177 173 166 156 155 157 160 161 165 161 159 156 145 140 125 100 133 180 203 220 233 245 251 230
188 192 192 193 190 190 189 189 184 181 177 168 165 168 178 176 186 182 188 203 193 181 170 165 168 168 172 171 170 171 173 173 160 121 80 69 105 198 223 233 236 225 204
191 192 195 196 198 196 181 173 172 182 180 177 176 175 182 187 193 198 199 201 200 195 199 197 176 179 181 182 189 191 190 185 167 145 101 33 11 342 274 243 232 243 240
193 193 193 198 200 201 186 177 173 177 181 185 186 185 188 200 205 206 207 195 199 208 202 194 193 188 193 197 202 206 198 196 205 197 166 216 298 314 325 288 272 264 259
193 194 196 198 199 201 194 183 179 185 189 187 194 193 194 202 208 216 222 229 234 222 212 208 208 207 204 206 212 208 210 218 218 227 233 218 273 283 310 316 287 270 262
195 195 197 200 200 200 196 188 187 187 193 196 193 199 199 202 203 212 222 227 238 250 231 220 217 218 224 223 220 216 217 218 226 237 243 251 270 268 275 309 314 277 269
197 198 200 201 200 202 201 202 197 195 196 198 199 199 204 205 206 211 204 213 226 229 231 254 242 239 240 238 236 229 226 234 237 243 242 249 250 263 271 278 307 300 274
199 200 202 202 203 204 206 209 204 200 202 202 200 200 200 204 206 214 222 226 225 228 222 228 243 254 251 249 240 237 241 238 239 246 245 249 254 263 273 275 287 297 287
200 201 202 205 206 207 209 211 213 206 208 210 211 209 209 216 222 228 233 237 238 242 239 240 239 245 251 258 252 242 242 243 242 252 254 255 257 261 267 276 274 288 296
204 202 204 205 210 213 212 213 217 215 213 220 221 221 227 225 225 232 236 243 248 251 249 245 255 249 239 250 250 246 245 244 253 252 265 257 262 259 267 268 267 269 301